[[{"header":{"parameterUnit":"m.s-1","parameterCategory":1,"la1":30.2991,"la2":30.254,"lo1":-89.0895,"lo2":-89.0444,"dy":0.0017,"dx":0.0017,"nx":28,"ny":28,"refTime":"2025-05-27T21:00:00:Z","depth":0,"parameterNumber":2,"parameterNumberName":"U-component_of_WINDS"},"data":[0,0,0,0,0,0,0,0,0,0,0,0,0,0,0,0,0,0,0,0,0,0,0,0,0,0,0,0,0,0,0,0,0,0,0,0,0,0,0,0,0,0,0,0,0,0,0,0,0,0,0,0,0,0,0,0,0,0,1.8698,1.8699,0,1.8776,1.8777,1.8778,1.8784,1.8783,1.8782,1.8781,1.8866,1.8869,1.8872,0,0,0,0,0,0,0,0,0,0,0,0,0,1.856,1.8563,1.8698,1.8699,1.87,1.8776,1.8777,1.8778,1.8784,1.8783,1.8782,1.8781,1.8865,1.8869,1.8873,0,0,0,0,0,0,0,0,0,0,0,0,0,1.8628,1.8564,1.8698,1.8712,1.8714,1.8775,1.8777,1.8778,1.8784,1.8783,1.8781,1.878,1.8864,1.8869,1.8873,1.8927,0,0,1.8887,1.8889,0,0,0,0,0,0,0,0,1.8624,1.8633,1.8709,1.8711,1.8714,1.8769,1.8759,1.8828,1.8784,1.8758,1.8781,1.878,1.8835,1.8842,1.886,1.8931,1.8935,1.8888,1.889,1.8892,1.8894,0,0,0,0,0,0,0,1.8619,1.8629,1.8729,1.871,1.8713,1.8716,1.8724,1.8773,1.8803,1.876,1.876,1.8769,1.8836,1.8855,1.8862,1.8936,1.8887,1.8892,1.8894,1.8896,1.9058,1.9059,0,0,0,0,0,0,1.8611,1.8625,1.8727,1.8731,1.8664,1.872,1.8729,1.8752,1.8802,1.8809,1.877,1.8769,1.8848,1.8856,1.8865,1.8932,1.8892,1.8897,1.8899,1.9056,1.9058,1.906,0,0,0,0,0,0,1.8608,1.862,1.8723,1.8679,1.8692,1.8723,1.875,1.8755,1.8773,1.881,1.8816,1.8784,1.8847,1.8858,1.8912,1.8935,1.8899,1.8903,1.9054,1.9057,1.9059,1.9067,0,0,0,0,0,0,1.8604,1.8619,1.8638,1.8679,1.8694,1.8767,1.8751,1.8757,1.8781,1.878,1.8824,1.8831,1.8847,1.8905,1.8916,1.8941,1.8907,1.9053,1.9056,1.9058,1.9065,1.907,1.9074,0,0,0,0,0,1.8599,1.8639,1.8639,1.8652,1.8719,1.8769,1.8778,1.8794,1.8783,1.8804,1.8827,1.8829,1.8931,1.891,1.8923,1.895,1.9051,1.9055,1.9058,1.9063,1.9069,1.9073,0,0,0,0,0,0,1.8602,1.8644,1.8646,1.8699,1.873,1.8769,1.8796,1.88,1.8836,1.8834,1.8855,1.8865,1.8918,1.8939,1.8915,1.9005,1.899,1.8996,1.899,1.8995,1.8999,1.8993,1.891,0,0,0,0,0,1.8609,1.8644,1.8679,1.8723,1.8739,1.8765,1.8787,1.8797,1.8831,1.8844,1.8872,1.8906,1.8946,1.8971,1.901,1.9068,1.9079,1.9093,1.9097,1.91,1.9106,1.9139,1.9146,1.9071,1.9071,1.9071,0,0,1.8624,1.8651,1.8672,1.8725,1.875,1.8787,1.8776,1.8816,1.8844,1.8851,1.8903,1.8924,1.8964,1.902,1.9046,1.9039,1.9129,1.9105,1.9107,1.9111,1.9143,1.915,1.9157,1.9073,1.9073,1.9073,0,0,1.8669,1.8693,1.8732,1.8758,1.8795,1.8812,1.8822,1.8861,1.8875,1.8926,1.8932,1.8968,1.9035,1.9063,1.9086,1.9143,1.9147,1.9155,1.9177,1.921,1.9216,1.9221,1.9242,1.9249,1.916,1.916,1.916,0,1.8684,1.8738,1.8753,1.8792,1.8816,1.8822,1.8863,1.8887,1.8936,1.8954,1.8945,1.903,1.9057,1.912,1.9134,1.9152,1.9165,1.915,1.9213,1.9219,1.9224,1.9244,1.9252,1.9161,1.9161,1.9161,1.9161,0,1.8754,1.8792,1.882,1.8865,1.8892,1.8932,1.8954,1.898,1.8988,1.9006,1.906,1.9092,1.9138,1.9153,1.9162,1.9218,1.9213,1.9208,1.9193,1.9232,1.9251,1.9259,1.9162,1.9162,1.9162,1.9161,0,0,1.8805,1.8857,1.8867,1.8888,1.893,1.896,1.9002,1.9044,1.9066,1.91,1.9136,1.9193,1.9189,1.9215,1.9227,1.9255,1.9299,1.9248,1.9249,1.9257,1.9364,1.9368,1.9376,1.9301,1.9303,1.9304,1.9361,0,1.8856,1.8927,1.8942,1.9004,1.904,1.9047,1.9083,1.9113,1.9132,1.9167,1.9188,1.9228,1.9219,1.9235,1.9263,1.9288,1.9321,1.9284,1.9337,1.9339,1.9327,1.9387,1.9391,1.9443,1.9369,1.937,1.9371,0,1.8925,1.8958,1.9024,1.9062,1.9077,1.9109,1.915,1.9182,1.9218,1.9229,1.9258,1.9267,1.9312,1.9294,1.9357,1.9331,1.9354,1.937,1.9372,1.9378,1.9358,1.9396,1.946,1.9468,1.9383,1.9382,1.9381,0,1.8956,1.9018,1.9065,1.9083,1.9128,1.915,1.917,1.9204,1.9229,1.9265,1.9281,1.9323,1.9346,1.9379,1.9399,1.9384,1.9461,1.9445,1.9474,1.9473,1.949,1.9489,1.956,1.9503,1.9503,1.9503,1.9503,0,1.9012,1.9052,1.908,1.9109,1.9155,1.9172,1.9218,1.9238,1.9268,1.9303,1.9311,1.9344,1.9368,1.9405,1.9421,1.9472,1.9482,1.9494,1.9498,1.9494,1.9492,1.951,1.9507,1.9505,1.9505,1.9504,1.9504,0,1.9055,1.9075,1.9127,1.9165,1.9175,1.9207,1.924,1.927,1.9288,1.9332,1.9344,1.9373,1.9417,1.944,1.9495,1.9506,1.9563,1.9565,1.9551,1.9553,1.958,1.9578,1.9666,1.9679,1.9613,1.9613,1.9614,0,1.909,1.912,1.9161,1.9184,1.9204,1.9241,1.9266,1.9284,1.931,1.9353,1.9378,1.9422,1.9457,1.9527,1.9555,1.9597,1.9601,1.9629,1.9608,1.9602,1.9602,1.9601,1.9604,1.9633,1.9633,1.9634,1.9634,0,1.9149,1.9158,1.9192,1.9231,1.926,1.9292,1.9323,1.9342,1.9366,1.9395,1.9439,1.9466,1.9522,1.9566,1.961,1.9633,1.9639,1.964,1.965,1.9646,1.9637,1.9643,1.9562,1.9639,1.9638,1.9638,1.9638,1.9638,1.919,1.9218,1.9251,1.9289,1.9315,1.9344,1.9373,1.9395,1.9431,1.9477,1.9486,1.9532,1.9568,1.9628,1.9652,1.969,1.9685,1.9698,1.9701,1.9704,1.9706,1.963,1.9698,1.9698,1.9698,1.9698,1.9698,0,1.9251,1.9272,1.9307,1.935,1.9381,1.9381,1.9416,1.9443,1.9483,1.9515,1.955,1.9601,1.9643,1.9674,1.9718,1.9742,1.9746,1.9753,1.9752,1.9758,1.9708,1.9696,1.975,1.975,1.975,1.975,1.9749,1.9749,1.9286,1.9334,1.9346,1.9407,1.9428,1.9472,1.9492,1.952,1.9546,1.9601,1.9636,1.9655,1.9687,1.9733,1.9773,1.9781,1.9797,1.9805,1.9813,1.9766,1.9761,1.9756,1.9745,1.9808,1.9808,1.986,1.986,1.9861]},{"header":{"parameterUnit":"m.s-1","parameterCategory":1,"la1":30.2991,"la2":30.254,"lo1":-89.0895,"lo2":-89.0444,"dy":0.0017,"dx":0.0017,"nx":28,"ny":28,"refTime":"2025-05-27T21:00:00:Z","depth":0,"parameterNumber":3,"parameterNumberName":"V-component_of_WINDS"},"data":[0,0,0,0,0,0,0,0,0,0,0,0,0,0,0,0,0,0,0,0,0,0,0,0,0,0,0,0,0,0,0,0,0,0,0,0,0,0,0,0,0,0,0,0,0,0,0,0,0,0,0,0,0,0,0,0,0,0,4.7958,4.7958,0,4.7936,4.7936,4.7935,4.7925,4.7925,4.7925,4.7925,4.7898,4.7898,4.7897,0,0,0,0,0,0,0,0,0,0,0,0,0,4.7989,4.7989,4.7958,4.7958,4.7958,4.7936,4.7936,4.7935,4.7925,4.7925,4.7925,4.7926,4.7899,4.7898,4.7897,0,0,0,0,0,0,0,0,0,0,0,0,0,4.7972,4.7989,4.7958,4.795,4.7949,4.7936,4.7936,4.7935,4.7925,4.7925,4.7925,4.7926,4.7899,4.7898,4.7897,4.7888,0,0,4.7893,4.7893,0,0,0,0,0,0,0,0,4.7973,4.7971,4.7952,4.7951,4.795,4.7934,4.7937,4.7919,4.7925,4.7934,4.7925,4.7926,4.791,4.7908,4.7903,4.7887,4.7886,4.7893,4.7892,4.7892,4.7892,0,0,0,0,0,0,0,4.7974,4.7972,4.7949,4.7952,4.795,4.7947,4.7944,4.7933,4.7922,4.7934,4.7933,4.7931,4.7909,4.7904,4.7902,4.7886,4.7893,4.7892,4.7891,4.7891,4.7862,4.7862,0,0,0,0,0,0,4.7977,4.7973,4.795,4.7949,4.7962,4.7946,4.7944,4.7939,4.7922,4.792,4.793,4.793,4.7906,4.7904,4.7902,4.7891,4.7892,4.7891,4.789,4.7862,4.7862,4.7862,0,0,0,0,0,0,4.7978,4.7975,4.7951,4.7961,4.7957,4.7946,4.794,4.7938,4.7933,4.792,4.7917,4.7928,4.7906,4.7903,4.7892,4.789,4.789,4.7889,4.7862,4.7862,4.7862,4.787,0,0,0,0,0,0,4.7979,4.7976,4.7973,4.7961,4.7957,4.7943,4.794,4.7938,4.7932,4.7931,4.7917,4.7914,4.7906,4.7894,4.7891,4.7888,4.7888,4.7862,4.7862,4.7862,4.787,4.787,4.787,0,0,0,0,0,4.798,4.7976,4.7973,4.7971,4.7954,4.7943,4.7941,4.7933,4.7932,4.7929,4.792,4.7915,4.7891,4.7893,4.7889,4.7886,4.7862,4.7862,4.7862,4.787,4.787,4.787,0,0,0,0,0,0,4.7987,4.7974,4.7971,4.7962,4.7954,4.7941,4.7937,4.7933,4.7924,4.7923,4.7912,4.7909,4.7899,4.7892,4.7894,4.7878,4.7876,4.7875,4.7883,4.7883,4.7884,4.7885,4.7887,0,0,0,0,0,4.7987,4.7981,4.7969,4.7963,4.7959,4.7949,4.7944,4.7939,4.7929,4.7925,4.7915,4.7905,4.7895,4.7889,4.7879,4.7869,4.7865,4.7865,4.7865,4.7866,4.7865,4.7859,4.7859,4.7861,4.7861,4.7861,0,0,4.7988,4.798,4.7976,4.7964,4.7957,4.7949,4.7946,4.7938,4.7932,4.7923,4.7913,4.7905,4.7893,4.7883,4.7877,4.7876,4.7864,4.7865,4.7866,4.7865,4.7859,4.7858,4.7858,4.7861,4.7861,4.7861,0,0,4.7986,4.7979,4.7974,4.7967,4.7957,4.795,4.7949,4.7937,4.7932,4.7922,4.7915,4.7907,4.7891,4.7882,4.7876,4.7872,4.7866,4.7868,4.787,4.7864,4.7864,4.7864,4.7862,4.7862,4.7868,4.7868,4.7868,0,4.7988,4.7977,4.7971,4.7964,4.7958,4.7951,4.7945,4.7938,4.7925,4.7921,4.792,4.7899,4.789,4.7878,4.7877,4.7872,4.787,4.787,4.7865,4.7864,4.7864,4.7862,4.7862,4.7868,4.7868,4.7868,4.7868,0,4.798,4.7973,4.7969,4.7958,4.7952,4.7946,4.7937,4.7931,4.7927,4.792,4.7909,4.7899,4.7887,4.7884,4.7878,4.7871,4.787,4.7867,4.7865,4.7864,4.7863,4.7862,4.7869,4.7869,4.7868,4.7868,0,0,4.7981,4.7967,4.7966,4.7961,4.7949,4.7943,4.7936,4.7926,4.7921,4.7912,4.7905,4.7892,4.789,4.7882,4.7876,4.7871,4.7868,4.7869,4.7868,4.7869,4.7859,4.7861,4.7861,4.7865,4.7865,4.7865,4.786,0,4.7977,4.7965,4.7959,4.7949,4.7942,4.7936,4.7929,4.7921,4.7915,4.7907,4.79,4.789,4.7888,4.7884,4.7879,4.787,4.7866,4.787,4.7857,4.7857,4.7861,4.786,4.7862,4.7858,4.7859,4.7859,4.7859,0,4.797,4.7963,4.7953,4.7943,4.794,4.7935,4.7925,4.7918,4.7909,4.7904,4.7897,4.7891,4.7882,4.7881,4.7869,4.7871,4.7866,4.7861,4.786,4.7859,4.7858,4.7857,4.7856,4.7856,4.7858,4.7858,4.7858,0,4.7972,4.7959,4.7952,4.7948,4.7936,4.7932,4.7927,4.7918,4.7912,4.7903,4.79,4.7889,4.7884,4.7876,4.7867,4.7867,4.7855,4.7853,4.785,4.785,4.7847,4.7848,4.7845,4.7844,4.7844,4.7844,4.7844,0,4.7968,4.7962,4.7953,4.7948,4.7941,4.7934,4.7926,4.792,4.7912,4.7906,4.7899,4.7893,4.7882,4.7874,4.7867,4.7857,4.7855,4.785,4.7848,4.7851,4.7851,4.7847,4.7846,4.7844,4.7844,4.7844,4.7844,0,4.7968,4.7962,4.7953,4.7943,4.794,4.7936,4.7927,4.7921,4.7915,4.7907,4.7904,4.7894,4.7884,4.7875,4.7862,4.7857,4.7847,4.7845,4.7851,4.785,4.7848,4.7848,4.7842,4.784,4.7841,4.7841,4.7841,0,4.7966,4.7961,4.7951,4.7947,4.7943,4.7936,4.793,4.7923,4.7918,4.7907,4.7903,4.7893,4.7885,4.787,4.786,4.785,4.7847,4.7846,4.7845,4.7848,4.7847,4.7847,4.7846,4.7846,4.7846,4.7846,4.7846,0,4.7963,4.796,4.7953,4.7946,4.794,4.7934,4.7926,4.7923,4.7914,4.7908,4.7899,4.7893,4.788,4.787,4.7859,4.7852,4.7847,4.7846,4.7845,4.7847,4.7851,4.7849,4.7851,4.7846,4.7846,4.7846,4.7846,4.7846,4.7961,4.7957,4.795,4.7943,4.7937,4.7931,4.7926,4.792,4.7912,4.7902,4.7898,4.7889,4.7879,4.7864,4.7858,4.7849,4.7848,4.7846,4.7846,4.7845,4.7846,4.7853,4.7847,4.7847,4.7847,4.7847,4.7847,0,4.7958,4.7953,4.7947,4.7938,4.7932,4.793,4.7922,4.7917,4.7909,4.7902,4.7894,4.7884,4.7874,4.7865,4.7855,4.785,4.7847,4.7848,4.7848,4.7846,4.7848,4.785,4.785,4.785,4.785,4.785,4.785,4.785,4.7955,4.7948,4.7945,4.7935,4.793,4.7922,4.7918,4.7912,4.7905,4.7895,4.7887,4.7882,4.7873,4.7862,4.7853,4.7851,4.7847,4.7848,4.7844,4.7846,4.7846,4.7846,4.7848,4.7847,4.7847,4.7843,4.7843,4.7843]}]]